KRP711 LRTR-LGKR

Flight info

Callsign KRP711
Flight time N/A
Altitude 38000
Route MAVIT DCT IRGOR DCT ALELU DCT INLOT DCT RODON DCT EBELA DCT PAPIZ DCT GOKEL DCT OLGAT DCT TIGRA
Aircraft A319/M-SDE3FGHIRWY/LB1

Departure

Time 2026-05-08 15:24
Airport Timișoara Traian Vuia International Airport (LRTR)

Arrival

Time N/A
Airport Corfu Ioannis Kapodistrias International Airport (LGKR)
Time Latitude Longitude Altitude Speed Heading
2026-05-08 15:15 45.81086 21.32265 350 ft 0 kts 109°
2026-05-08 15:16 45.81084 21.32270 353 ft 1 kts 109°
2026-05-08 15:16 45.81076 21.32302 345 ft 6 kts 110°
2026-05-08 15:16 45.81056 21.32380 342 ft 10 kts 110°
2026-05-08 15:17 45.81061 21.32452 345 ft 8 kts 36°
2026-05-08 15:17 45.81092 21.32505 342 ft 8 kts 93°
2026-05-08 15:17 45.81068 21.32603 345 ft 12 kts 110°
2026-05-08 15:17 45.81036 21.32733 347 ft 14 kts 110°
2026-05-08 15:18 45.81001 21.32870 342 ft 15 kts 110°
2026-05-08 15:18 45.80965 21.33015 345 ft 16 kts 110°
2026-05-08 15:18 45.80927 21.33165 342 ft 16 kts 110°
2026-05-08 15:18 45.80888 21.33319 344 ft 17 kts 110°
2026-05-08 15:19 45.80863 21.33477 342 ft 16 kts 76°
2026-05-08 15:19 45.80951 21.33558 347 ft 15 kts 20°
2026-05-08 15:19 45.81013 21.33660 345 ft 16 kts 99°
2026-05-08 15:19 45.80970 21.33834 344 ft 21 kts 110°
2026-05-08 15:20 45.80920 21.34035 346 ft 22 kts 110°
2026-05-08 15:20 45.80867 21.34246 335 ft 23 kts 109°
2026-05-08 15:20 45.80811 21.34470 340 ft 24 kts 110°
2026-05-08 15:20 45.80755 21.34690 341 ft 23 kts 110°
2026-05-08 15:21 45.80702 21.34903 346 ft 22 kts 110°
2026-05-08 15:21 45.80649 21.35114 351 ft 23 kts 109°
2026-05-08 15:21 45.80596 21.35325 344 ft 23 kts 110°
2026-05-08 15:21 45.80541 21.35544 344 ft 23 kts 109°
2026-05-08 15:22 45.80505 21.35686 346 ft 19 kts 110°
2026-05-08 15:22 45.80502 21.35841 337 ft 12 kts 98°
2026-05-08 15:22 45.80468 21.35831 342 ft 9 kts 277°
2026-05-08 15:22 45.80482 21.35777 345 ft 0 kts 289°
2026-05-08 15:23 45.80485 21.35765 346 ft 5 kts 289°
2026-05-08 15:23 45.80576 21.35405 347 ft 77 kts 290°
2026-05-08 15:23 45.80836 21.34376 338 ft 140 kts 290°
2026-05-08 15:23 45.81210 21.32877 620 ft 165 kts 291°
2026-05-08 15:24 45.81598 21.31334 1364 ft 165 kts 292°
2026-05-08 15:24 45.81986 21.29790 2076 ft 165 kts 293°
2026-05-08 15:24 45.82392 21.28157 2499 ft 186 kts 290°
2026-05-08 15:24 45.82382 21.26188 2811 ft 218 kts 251°
2026-05-08 15:25 45.81340 21.24464 3203 ft 249 kts 213°
2026-05-08 15:25 45.79687 21.23390 3796 ft 270 kts 199°
2026-05-08 15:25 45.77870 21.22611 4811 ft 273 kts 195°
2026-05-08 15:25 45.76033 21.21933 5902 ft 273 kts 195°
2026-05-08 15:26 45.74190 21.21257 6941 ft 275 kts 195°
2026-05-08 15:26 45.72334 21.20546 7907 ft 278 kts 196°
2026-05-08 15:26 45.70462 21.19791 8868 ft 281 kts 197°
2026-05-08 15:26 45.68573 21.18998 9833 ft 285 kts 197°
2026-05-08 15:27 45.66641 21.18169 10446 ft 300 kts 197°
2026-05-08 15:27 45.64561 21.17261 10778 ft 323 kts 198°
2026-05-08 15:27 45.62376 21.16301 11422 ft 332 kts 197°
2026-05-08 15:27 45.60151 21.15324 12196 ft 337 kts 197°
2026-05-08 15:28 45.57890 21.14338 12996 ft 342 kts 197°
2026-05-08 15:28 45.55603 21.13343 13785 ft 346 kts 197°
2026-05-08 15:28 45.53256 21.12325 14474 ft 350 kts 197°
2026-05-08 15:28 45.50914 21.11311 15196 ft 353 kts 197°
2026-05-08 15:29 45.48557 21.10290 15919 ft 355 kts 197°
2026-05-08 15:29 45.46181 21.09262 16633 ft 358 kts 197°
2026-05-08 15:29 45.43786 21.08224 17331 ft 362 kts 197°
2026-05-08 15:29 45.41400 21.07190 18009 ft 365 kts 197°
2026-05-08 15:30 45.38926 21.06117 18636 ft 369 kts 197°
2026-05-08 15:30 45.36492 21.05064 19216 ft 372 kts 197°
2026-05-08 15:30 45.34000 21.03991 19796 ft 376 kts 197°
2026-05-08 15:30 45.31452 21.02896 20390 ft 380 kts 197°
2026-05-08 15:31 45.28912 21.01801 20969 ft 383 kts 197°
2026-05-08 15:31 45.26349 21.00699 21542 ft 387 kts 197°
2026-05-08 15:31 45.23762 20.99588 22113 ft 391 kts 197°
2026-05-08 15:31 45.21145 20.98466 22689 ft 394 kts 197°
2026-05-08 15:32 45.18509 20.97336 23243 ft 397 kts 197°
2026-05-08 15:32 45.15852 20.96195 23745 ft 401 kts 197°
2026-05-08 15:32 45.13170 20.95043 24195 ft 404 kts 197°
2026-05-08 15:32 45.10474 20.93888 24653 ft 406 kts 197°
2026-05-08 15:33 45.07759 20.92724 25107 ft 409 kts 197°
2026-05-08 15:33 45.05030 20.91558 25558 ft 411 kts 197°
2026-05-08 15:33 45.02285 20.90388 26009 ft 413 kts 197°
2026-05-08 15:33 44.99531 20.89217 26450 ft 415 kts 197°
2026-05-08 15:34 44.96763 20.88042 26889 ft 417 kts 198°
2026-05-08 15:34 44.93976 20.86859 27325 ft 419 kts 198°
2026-05-08 15:34 44.91176 20.85671 27761 ft 421 kts 198°
2026-05-08 15:34 44.88366 20.84478 28206 ft 423 kts 198°
2026-05-08 15:35 44.85541 20.83277 28620 ft 425 kts 198°
2026-05-08 15:35 44.82702 20.82074 29033 ft 427 kts 198°
2026-05-08 15:35 44.79852 20.80866 29446 ft 429 kts 198°
2026-05-08 15:35 44.76989 20.79653 29836 ft 431 kts 198°
2026-05-08 15:36 44.74109 20.78435 30191 ft 433 kts 198°
2026-05-08 15:36 44.71220 20.77217 30514 ft 435 kts 198°
2026-05-08 15:36 44.68318 20.75983 30835 ft 436 kts 198°
2026-05-08 15:36 44.65414 20.74738 31147 ft 438 kts 198°
2026-05-08 15:37 44.62491 20.73481 31461 ft 440 kts 198°
2026-05-08 15:37 44.59567 20.72224 31817 ft 440 kts 198°
2026-05-08 15:37 44.56645 20.70974 32265 ft 438 kts 198°
2026-05-08 15:37 44.53729 20.69734 32715 ft 437 kts 198°
2026-05-08 15:38 44.50830 20.68503 33161 ft 435 kts 198°
2026-05-08 15:38 44.47942 20.67274 33614 ft 434 kts 198°
2026-05-08 15:38 44.45057 20.66047 34061 ft 432 kts 198°
2026-05-08 15:38 44.42185 20.64824 34441 ft 431 kts 198°
2026-05-08 15:39 44.39319 20.63603 34818 ft 430 kts 199°
2026-05-08 15:39 44.36457 20.62385 35172 ft 429 kts 199°
2026-05-08 15:39 44.33604 20.61175 35507 ft 429 kts 199°
2026-05-08 15:39 44.30749 20.59967 35837 ft 428 kts 199°
2026-05-08 15:40 44.27902 20.58766 36164 ft 428 kts 199°
2026-05-08 15:40 44.25056 20.57566 36484 ft 427 kts 199°
2026-05-08 15:40 44.22209 20.56363 36796 ft 427 kts 199°
2026-05-08 15:40 44.19373 20.55167 37088 ft 426 kts 199°
2026-05-08 15:41 44.16533 20.53971 37375 ft 426 kts 199°
2026-05-08 15:41 44.13700 20.52779 37648 ft 426 kts 199°
2026-05-08 15:41 44.10868 20.51593 37926 ft 426 kts 199°
2026-05-08 15:41 44.08034 20.50407 38001 ft 425 kts 200°
2026-05-08 15:42 44.02377 20.48036 38000 ft 424 kts 200°
2026-05-08 15:42 43.96722 20.45667 38003 ft 424 kts 199°
2026-05-08 15:43 43.91068 20.43310 38006 ft 425 kts 199°
2026-05-08 15:43 43.85404 20.40953 38002 ft 425 kts 199°
2026-05-08 15:44 43.79739 20.38589 38005 ft 425 kts 199°
2026-05-08 15:44 43.74070 20.36229 37998 ft 426 kts 199°
2026-05-08 15:45 43.68394 20.33880 37997 ft 426 kts 199°
2026-05-08 15:45 43.62704 20.31538 38000 ft 427 kts 199°
2026-05-08 15:46 43.57011 20.29192 38001 ft 427 kts 199°
2026-05-08 15:46 43.51312 20.26844 38001 ft 428 kts 199°
2026-05-08 15:47 43.45603 20.24493 38011 ft 428 kts 199°
2026-05-08 15:47 43.39886 20.22152 38013 ft 429 kts 199°
2026-05-08 15:48 43.31303 20.18639 38013 ft 430 kts 199°
2026-05-08 15:49 43.25568 20.16299 38016 ft 430 kts 199°
2026-05-08 15:49 43.19829 20.13967 38019 ft 431 kts 199°
2026-05-08 15:50 43.14074 20.11632 38023 ft 431 kts 199°
2026-05-08 15:50 43.08329 20.09295 38019 ft 431 kts 199°
2026-05-08 15:51 43.02569 20.06957 38015 ft 432 kts 199°
2026-05-08 15:51 42.96805 20.04630 38017 ft 432 kts 199°
2026-05-08 15:52 42.91036 20.02310 38019 ft 432 kts 199°
2026-05-08 15:52 42.85265 19.99979 38016 ft 433 kts 199°
2026-05-08 15:53 42.79491 19.97655 38017 ft 433 kts 199°
2026-05-08 15:53 42.73699 19.95340 38021 ft 434 kts 199°
2026-05-08 15:54 42.67915 19.93026 38023 ft 434 kts 199°
2026-05-08 15:54 42.62125 19.90714 38012 ft 433 kts 199°
2026-05-08 15:55 42.56342 19.88413 38016 ft 433 kts 199°
2026-05-08 15:55 42.47719 19.84727 38012 ft 431 kts 208°
2026-05-08 15:56 42.42507 19.80719 38003 ft 428 kts 213°
2026-05-08 15:56 42.37374 19.76607 38009 ft 429 kts 213°
2026-05-08 15:57 42.32233 19.72505 38005 ft 429 kts 213°
2026-05-08 15:57 42.27095 19.68413 38004 ft 429 kts 213°
2026-05-08 15:58 42.21953 19.64317 37996 ft 429 kts 213°
2026-05-08 15:58 42.16814 19.60224 38002 ft 429 kts 213°
2026-05-08 15:59 42.12546 19.56830 37997 ft 429 kts 213°
2026-05-08 15:59 42.07401 19.52751 37995 ft 429 kts 213°
2026-05-08 16:00 42.02252 19.48688 38000 ft 429 kts 213°
2026-05-08 16:00 41.97088 19.44647 37995 ft 430 kts 212°
2026-05-08 16:01 41.91785 19.40910 37992 ft 431 kts 210°
2026-05-08 16:01 41.86397 19.37362 37989 ft 431 kts 209°
2026-05-08 16:02 41.81026 19.33783 37990 ft 431 kts 210°
2026-05-08 16:02 41.78350 19.31975 37859 ft 431 kts 210°
2026-05-08 16:02 41.75689 19.30159 38110 ft 429 kts 211°
2026-05-08 16:03 41.73043 19.28308 38306 ft 429 kts 211°
2026-05-08 16:03 41.70407 19.26419 38518 ft 429 kts 212°
2026-05-08 16:03 41.67787 19.24498 38738 ft 429 kts 213°
2026-05-08 16:03 41.65188 19.22548 38940 ft 428 kts 213°
2026-05-08 16:04 41.62610 19.20569 39160 ft 426 kts 214°
2026-05-08 16:04 41.60059 19.18568 39401 ft 424 kts 214°
2026-05-08 16:04 41.57538 19.16546 39659 ft 421 kts 215°
2026-05-08 16:04 41.55053 19.14511 39940 ft 418 kts 216°
2026-05-08 16:05 41.52602 19.12462 40243 ft 413 kts 217°
2026-05-08 16:05 41.50193 19.10406 40568 ft 408 kts 217°
2026-05-08 16:05 41.47836 19.08352 40889 ft 403 kts 218°
2026-05-08 16:05 41.45521 19.06295 41247 ft 396 kts 218°
2026-05-08 16:06 41.43263 19.04248 41619 ft 389 kts 219°
2026-05-08 16:06 41.41063 19.02214 41985 ft 381 kts 219°
2026-05-08 16:06 41.38925 19.00200 42361 ft 372 kts 220°
2026-05-08 16:06 41.36859 18.98216 42743 ft 361 kts 221°
2026-05-08 16:07 41.34865 18.96265 43113 ft 350 kts 221°
2026-05-08 16:07 41.32948 18.94355 43399 ft 340 kts 222°
2026-05-08 16:07 41.31071 18.92442 43292 ft 342 kts 223°
2026-05-08 16:07 41.29181 18.90465 42910 ft 350 kts 223°
2026-05-08 16:08 41.27274 18.88412 42704 ft 353 kts 224°
2026-05-08 16:08 41.25399 18.86345 42856 ft 346 kts 225°